Regional Weather Roundup
Issued by NWS

Home | Current Version | Previous Version | Graphics & Text | Print | Product List | Glossary On
Versions: 1 2 3 4 5 6 7 8 9 10 11 12 13 14 15 16 17 18 19 20 21 22 23 24 25 26 27 28 29 30 31 32 33 34 35 36 37 38 39 40 41 42 43 44 45 46 47 48 49 50
000
ASUS43 KFSD 172010
RWRSD

WEATHER ROUNDUP FOR SOUTH DAKOTA
NATIONAL WEATHER SERVICE SIOUX FALLS SD
300 PM CDT THU APR 17 2014

NOTE: "FAIR" INDICATES FEW OR NO CLOUDS BELOW 12,000 FEET WITH NO
SIGNIFICANT WEATHER AND/OR OBSTRUCTIONS TO VISIBILITY.


SDZ001>005-009-010-012>017-172100-
NORTHWEST AND NORTH CENTRAL SOUTH DAKOTA

CITY           SKY/WX    TMP DP  RH WIND       PRES   REMARKS
BUFFALO          N/A     47  30  51 SE22G28   29.98F
FAITH            N/A     43  23  45 S24G33    30.12F
MOBRIDGE       CLOUDY    45  19  35 S15G23    30.19F
$$

SDZ012>016-024>037-041>051-057-063-072>074-172100-
SOUTHWEST AND SOUTH CENTRAL SOUTH DAKOTA

CITY           SKY/WX    TMP DP  RH WIND       PRES   REMARKS
RAPID CTY ARPT PTSUNNY   46  32  58 S20G26    30.06S
PIERRE         CLOUDY    43  22  43 SE16      30.22F
CUSTER         PTSUNNY   37  33  85 S10       30.02F
ELLSWORTH AFB  PTSUNNY   49  34  56 S21G28    30.03F
PHILIP         PTSUNNY   48  29  47 SE20G28   30.16F
PINE RIDGE     CLOUDY    46  34  62 S16       30.11F
SPEARFISH      FAIR      50  34  53 SE13      30.01F
WINNER         CLOUDY    39  27  62 SE7       30.25R HAZE
$$

SDZ004>011-016>023-039-040-172100-
NORTHEAST SOUTH DAKOTA

CITY           SKY/WX    TMP DP  RH WIND       PRES   REMARKS
ABERDEEN       SUNNY     42  15  33 SE7       30.28F
WATERTOWN      SUNNY     36  13  38 VRB3      30.28F
SISSETON         N/A     42  20  41 VRB3      30.30S
$$

SDZ017-020-022-023-036>040-048>070-172100-
SOUTHEAST SOUTH DAKOTA

CITY           SKY/WX    TMP DP  RH WIND       PRES   REMARKS
SIOUX FALLS    PTSUNNY   42  25  50 NE12      30.30F
HURON          MOSUNNY   43  20  39 E7        30.29F
CHAMBERLAIN      N/A     46  17  31 SE10      30.26S
MITCHELL       SUNNY     48  18  30 SE14      30.29F
YANKTON        SUNNY     45  21  39 CALM      30.30F
$$

ABBREVIATIONS USED IN REMARKS
   TC - TEMPERATURE IN CELSIUS
  WCI - WIND CHILL INDEX
   HX - HEAT INDEX
  VSB - VISIBILITY




USA.gov is the U.S. government's official web portal to all federal, state and local government web resources and services.